GFSGBSN_850_dewp_162.txt.gz
Dewpoint
10 9 9 9 9 9 10 10 10 10 9 9 9 9 8 7 5 2 1 -2 -5 -14 -15 -15 -16 -16 -18 -17 -19 -11 -6 -7 -12 -4 -5 -7 -8 -9 -8 -9 -10 -8 -10 -11 -12 -12 -13
10 10 10 10 10 10 10 10 10 9 9 9 8 8 8 7 5 2 1 -2 -6 -12 -16 -16 -16 -18 -14 -9 -14 -6 -6 -6 -9 -5 -4 -7 -6 -8 -9 -8 -9 -10 -10 -10 -11 -12 -13
9 10 10 9 9 9 10 10 10 10 9 9 9 8 7 6 4 3 -1 -4 -10 -11 -16 -17 -17 -16 -13 -17 -13 -11 -6 -7 -8 -8 -6 -7 -6 -8 -9 -8 -10 -9 -9 -10 -11 -12 -13
8 8 8 9 9 9 9 10 10 9 10 9 7 5 5 4 4 4 1 -4 -15 -13 -17 -16 -12 -13 -11 -14 -6 -9 -4 -4 -4 -5 -6 -5 -6 -6 -7 -8 -7 -8 -9 -8 -10 -12 -13
7 7 7 8 9 10 10 9 10 9 8 4 1 -0 -1 -2 -1 0 -1 -3 -17 -16 -17 -6 -0 -2 -6 -8 -7 -3 -4 -6 -5 -4 -5 -5 -5 -7 -7 -5 -5 -7 -7 -8 -9 -12 -13
5 7 8 9 9 9 9 9 7 4 1 1 3 3 1 0 -5 -11 -12 -14 -18 -12 1 2 4 2 -4 -3 -5 -5 -4 -6 -6 -5 -5 -4 -5 -7 -6 -6 -5 -7 -7 -6 -6 -9 -11
2 3 6 7 8 8 7 7 5 5 6 6 5 4 1 1 -1 -11 -14 -15 -5 -2 -2 1 2 2 -1 -5 -3 -5 -7 -7 -6 -7 -5 -5 -4 -3 -5 -6 -6 -6 -6 -6 -8 -10 -9
4 3 2 2 3 5 5 6 6 6 3 1 2 3 2 0 -4 -10 -12 -3 2 0 0 -1 -5 -6 -11 -14 0 -4 -7 -8 -8 -7 -6 -5 -3 -5 -6 -5 -5 -6 -6 -6 -8 -7 -7
4 4 3 3 3 2 2 1 1 0 -0 -1 -1 -2 -3 -5 -6 -10 -8 -2 2 1 0 -3 -9 -9 -14 -14 -5 -12 -9 -9 -6 -4 -4 -4 -5 -6 -6 -6 -5 -7 -6 -6 -6 -6 -7
5 5 4 4 3 3 2 2 1 1 0 0 -1 -2 -4 -5 -6 -2 2 3 2 1 -4 -4 -6 -8 -8 -8 -8 -8 -8 -9 -5 -3 -4 -5 -8 -7 -7 -6 -7 -5 -7 -6 -5 -5 -3
5 5 4 4 4 3 3 3 2 1 1 -0 -1 -2 -3 -3 -4 2 1 3 2 -6 -8 -10 -6 -5 -5 -9 -5 -5 -5 -6 -6 -6 -6 -5 -7 -6 -5 -7 -8 -6 -7 -6 -5 -5 -4
2 3 4 4 4 3 2 3 3 2 1 -0 -1 -2 -5 -1 -4 2 2 1 -2 -2 -1 -3 -3 -4 -2 -2 -4 -4 -4 -4 -3 -4 -5 -5 -7 -6 -6 -8 -9 -8 -7 -5 -4 -4 -1
0 1 1 2 3 4 3 2 3 3 1 0 -1 -2 -5 1 2 1 -1 -3 -3 2 -6 -4 -2 -4 -2 -1 -3 -4 -3 -3 -3 -5 -4 -7 -8 -8 -7 -6 -8 -8 -4 1 2 2 1
-1 -1 -1 0 1 2 3 3 3 3 2 0 -0 -2 -3 -3 2 3 -1 1 2 -8 -6 -13 -7 -3 -1 -2 -2 -3 -4 -2 -4 -6 -5 -5 -3 -11 -10 -7 -6 -6 -3 1 2 3 -0
-2 -2 -1 -1 -1 0 3 3 3 4 2 1 -0 -2 -3 -4 2 3 3 2 -4 -1 -8 -8 -8 -4 -3 -3 -2 -4 -3 -5 -7 -6 -3 -4 -5 -10 -10 -10 -7 -7 -4 -5 -0 -2 -1
-2 -2 -2 -1 -1 -1 1 3 3 3 2 1 -0 -2 -5 -4 1 2 2 -0 -1 -7 -10 -9 -6 -6 -4 -5 -5 -7 -7 -9 -10 -10 -11 -9 -6 -7 -10 -12 -10 -9 -9 -4 -0 -1 1
-6 -4 -3 -2 -1 -1 -1 2 3 3 2 1 -1 1 -1 -0 2 2 1 -0 -2 -9 -9 -8 -6 -6 -5 -6 -6 -5 -7 -8 -9 -8 -10 -10 -6 -6 -9 -9 -6 -3 -3 -4 -3 1 1
-5 -5 -6 -4 -3 -1 -1 0 2 3 2 1 -2 1 -1 1 1 -0 -0 -0 -3 -5 -8 -7 -8 -7 -7 -8 -7 -8 -8 -6 -11 -9 -6 -4 -3 -1 -4 -7 -6 -5 -3 -3 2 -2 2
-7 -6 -6 -7 -7 -3 -1 -0 1 3 3 1 -1 -1 1 1 1 0 -1 -1 -3 -4 -2 -7 -8 -8 -10 -10 -8 -7 -5 -7 -8 -6 -3 -5 -2 -1 -4 -4 -3 -4 -5 -3 -2 1 1
-7 -7 -6 -6 -6 -6 -2 -1 0 1 3 1 -0 1 2 3 2 -0 -1 -1 -1 -3 -3 -3 -7 -8 -9 -8 -6 -6 -7 -7 -7 -5 -6 -7 -4 -2 -2 -2 -2 -2 -3 -4 -2 -0 0
-7 -7 -6 -6 -7 -7 -6 -2 -0 1 2 1 0 0 -1 1 2 2 0 0 -1 -2 -4 -4 -6 -7 -6 -4 -5 -4 -4 -5 -6 -5 -4 -4 -2 -2 -2 -2 -2 -2 -2 -3 -1 -1 1
-5 -6 -7 -8 -7 -8 -8 -5 -1 0 2 0 -0 1 -0 -1 -2 0 1 1 0 -0 -0 -4 -5 -6 -6 -4 -5 -5 -6 -5 -4 -3 -4 -3 -2 -1 -4 -1 -0 1 -0 -1 -1 -1 -1
-5 -5 -7 -7 -8 -8 -8 -8 -4 -1 1 -1 -0 -0 -1 -2 -1 1 0 -0 -1 -1 -2 -3 -5 -4 -5 -4 -4 -6 -4 -3 -2 -2 -1 -1 -0 1 0 0 1 2 0 0 -1 -2 -2
-6 -5 -6 -7 -6 -6 -6 -8 -8 -3 -0 0 -0 -0 1 0 -1 -2 -2 -3 -2 -2 -0 -4 -5 -5 -4 -3 -3 -3 -4 -4 -3 -2 -2 -1 -0 0 2 0 1 -3 -3 -3 -2 -3 -3
-8 -6 -6 -8 -7 -6 -7 -7 -9 -8 -2 0 -0 -0 -0 -1 -1 -1 -2 -2 -2 -3 -2 -4 -6 -6 -4 -4 -0 -1 -1 -2 -2 -3 -3 -2 -0 1 1 1 -1 -2 -4 -3 -2 -2 -1
-10 -10 -7 -6 -9 -9 -10 -10 -11 -9 -6 -1 -1 0 -0 -0 -2 -3 -2 -2 -1 -3 -4 -7 -7 -6 -6 -0 -0 1 0 -2 -3 -3 -2 -3 -1 -0 1 3 3 -1 -2 -0 -1 2 0
-10 -9 -7 -7 -7 -9 -9 -10 -11 -10 -8 -2 -1 -0 -0 0 -2 -4 -3 -3 -4 -4 -3 -5 -6 -5 -6 -2 -0 1 0 -4 -1 -2 -2 1 1 2 2 2 2 -1 -3 -1 0 -1 -1
-8 -10 -12 -13 -12 -11 -10 -9 -11 -12 -9 -3 -1 -1 -0 0 -2 -3 -3 -4 -4 -5 -2 -1 -2 -2 -1 -2 -0 0 0 -0 -1 -3 -2 -0 2 2 2 4 3 -2 0 1 -1 -0 -1
-6 -6 -7 -8 -10 -9 -9 -9 -11 -12 -9 -3 -2 -1 -0 1 -1 -2 -2 -3 -4 -4 -3 -1 -1 1 -0 0 1 2 2 1 2 2 -0 3 4 4 3 1 -1 1 1 1 0 -1 -2

GFSGBSN_850_dewp_165.txt.gz
Dewpoint
9 9 8 9 9 9 9 9 9 10 9 10 10 9 8 7 7 6 5 2 -2 -3 -8 -8 -14 -18 -18 -16 -15 -14 -7 -7 -9 -5 -6 -6 -8 -8 -8 -9 -9 -9 -9 -10 -11 -11 -12
9 10 10 10 10 10 10 9 10 10 9 9 9 9 8 8 7 6 4 3 -0 -4 -12 -11 -13 -18 -16 -13 -15 -10 -6 -7 -6 -7 -5 -6 -6 -7 -9 -8 -9 -9 -9 -10 -12 -12 -12
9 8 9 10 10 10 10 9 10 9 10 10 9 9 9 7 5 4 3 2 1 -3 -12 -16 -15 -16 -9 -13 -18 -16 -9 -8 -8 -6 -6 -7 -6 -7 -8 -9 -9 -8 -8 -10 -11 -12 -12
7 7 8 8 9 9 10 10 9 9 9 9 9 9 8 4 1 -1 -3 -6 -9 -11 -14 -18 -17 -10 -5 -9 -11 -6 -4 -5 -4 -4 -6 -5 -5 -6 -7 -8 -6 -7 -9 -8 -12 -12 -13
5 7 7 7 7 7 8 9 9 9 9 9 9 7 2 1 0 1 -1 -5 -13 -16 -18 -15 -8 0 -3 -8 -6 -5 -4 -5 -7 -4 -4 -5 -5 -6 -7 -5 -7 -7 -8 -8 -8 -11 -12
3 5 6 6 7 8 9 9 9 9 9 9 4 3 4 4 3 3 2 -1 -4 -11 -5 -2 2 3 -4 -4 -4 -4 -5 -6 -7 -7 -5 -5 -5 -6 -6 -6 -8 -8 -6 -6 -6 -8 -9
2 2 2 6 8 8 8 8 8 8 7 3 5 6 5 6 5 5 3 1 -5 -4 -3 -5 -3 -1 -5 -7 -8 -8 -5 -7 -7 -6 -5 -5 -3 -2 -5 -6 -6 -6 -5 -5 -7 -9 -7
4 4 2 2 2 4 6 7 7 7 7 7 6 2 -2 -2 -0 -4 -6 -5 0 1 2 -4 -7 -5 -10 -5 -3 -8 -6 -6 -8 -7 -7 -5 -3 -4 -5 -5 -5 -4 -4 -5 -7 -8 -7
5 4 3 3 2 2 2 1 1 1 0 0 -0 -1 -2 -4 -5 -6 -6 -4 1 1 1 -4 -8 -6 -12 -11 -1 -7 -12 -9 -7 -6 -5 -4 -5 -6 -6 -6 -5 -5 -5 -6 -6 -6 -7
4 4 4 5 4 3 3 2 2 1 1 0 -0 -1 -2 -4 -5 -6 2 2 2 1 -7 -9 -7 -8 -8 -9 -7 -7 -8 -10 -6 -5 -4 -3 -5 -6 -6 -6 -7 -5 -7 -6 -6 -5 -5
4 5 4 5 5 4 4 3 2 2 1 1 -0 -1 -2 -6 -5 1 1 2 2 -3 -5 -12 -6 -5 -6 -8 -5 -5 -5 -8 -7 -7 -6 -4 -6 -5 -5 -6 -7 -6 -7 -6 -6 -5 -4
1 2 3 4 4 4 4 3 3 3 2 1 0 -1 -2 -6 -3 -0 2 2 -2 -5 -7 -9 -4 -4 -2 -2 -5 -4 -4 -5 -4 -4 -5 -5 -7 -6 -6 -7 -8 -8 -6 -4 -3 -4 -3
-1 0 1 1 3 3 4 3 3 3 3 2 1 -1 -2 -5 -2 -2 1 -1 -5 -5 -9 -5 -2 -4 -2 -2 -3 -4 -3 -3 -4 -2 -6 -6 -6 -7 -7 -6 -7 -8 -5 -1 1 2 -1
-3 -1 -1 -1 0 1 2 3 3 3 3 3 1 -0 -1 -4 2 2 -1 -1 -4 -9 -7 -10 -7 -4 -2 -2 -2 -2 -3 -2 -4 -6 -5 -4 -4 -9 -9 -7 -7 -6 -4 -0 1 3 -0
-4 -4 -2 -1 -1 -1 0 2 3 3 3 3 2 0 -1 -4 1 3 2 0 -6 -5 -6 -9 -8 -2 -1 -3 -2 -2 -2 -3 -4 -5 -4 -3 -5 -10 -11 -11 -8 -5 -3 -5 -1 -2 -1
-3 -2 -2 -2 -1 -1 -1 -0 2 3 3 3 2 1 -1 -4 -1 3 2 -2 -4 -3 -8 -8 -6 -7 -3 -4 -3 -6 -5 -8 -8 -9 -7 -7 -6 -9 -9 -12 -12 -9 -9 -3 -0 -1 1
-5 -5 -4 -3 -2 -1 -1 -1 -0 2 3 3 2 0 -2 -4 -1 2 1 -1 -1 -7 -7 -7 -7 -6 -6 -5 -5 -5 -6 -9 -9 -9 -10 -9 -6 -7 -9 -10 -6 -4 -3 -3 -3 0 1
-7 -5 -5 -7 -7 -3 -2 -0 -0 2 3 2 0 0 -1 -2 1 -1 -0 -0 -2 -4 -6 -5 -7 -6 -7 -9 -9 -8 -7 -7 -10 -9 -7 -5 -3 -2 -5 -7 -5 -6 -4 -3 1 -1 2
-7 -7 -6 -5 -5 -8 -5 -2 -1 0 2 2 0 -0 1 0 0 -0 -1 -1 -3 -3 -3 -3 -7 -6 -8 -9 -8 -6 -6 -7 -7 -7 -5 -6 -3 -3 -5 -7 -5 -4 -4 -3 -2 -0 1
-7 -6 -7 -7 -6 -6 -8 -4 -1 -0 1 2 -0 0 2 2 0 -2 -1 -1 -1 -3 -3 -5 -4 -5 -9 -8 -8 -7 -7 -7 -7 -6 -6 -7 -4 -5 -5 -6 -3 -3 -3 -4 -3 -0 -1
-5 -6 -7 -9 -7 -6 -7 -7 -4 -1 1 1 -0 -0 1 2 2 0 -2 -1 -1 -2 -4 -4 -2 -3 -6 -5 -5 -4 -5 -5 -7 -6 -4 -5 -3 -3 -3 -3 -2 -2 -2 -2 -1 -2 -1
-6 -6 -5 -6 -8 -7 -7 -8 -7 -2 -0 1 -0 -0 -0 -1 1 1 1 0 0 -0 -1 -0 -3 -4 -5 -5 -5 -5 -4 -6 -7 -4 -3 -4 -2 -2 -5 -3 -1 -0 -0 -0 -0 -0 -1
-6 -6 -6 -6 -6 -6 -6 -8 -8 -6 -2 -0 -0 -0 0 -0 -1 1 1 1 -1 -1 -1 -2 -1 -3 -4 -5 -7 -8 -8 -8 -4 -2 -2 -1 -0 0 -0 -1 -1 -0 -2 -2 -1 -1 -1
-6 -6 -6 -6 -8 -8 -8 -8 -9 -7 -4 -2 -1 -0 -1 1 -0 -0 -1 -1 -1 -1 -1 -3 -2 -1 -5 -5 -3 -3 -3 -3 -2 -2 -2 -1 -0 0 1 -1 1 -3 -5 -2 -2 -2 -3
-7 -6 -6 -6 -6 -6 -7 -7 -6 -7 -6 -3 -2 -1 -0 1 -1 -2 -2 -2 -2 -2 -1 -2 -2 -3 -3 -3 -1 -1 -1 -3 -2 -2 -3 -2 -0 1 1 1 -2 -4 -6 -4 -2 -2 -4
-8 -8 -6 -6 -7 -7 -8 -8 -7 -6 -7 -6 -3 -1 -1 -1 0 -2 -2 -2 -2 -2 -2 -3 -3 -3 -1 -1 -0 -0 -1 -2 -3 -4 -2 -3 -2 -0 1 2 1 -1 -3 -2 -1 2 -2
-9 -9 -9 -9 -8 -10 -11 -10 -9 -9 -9 -7 -4 -2 -1 -1 -0 -2 -1 -2 -2 -3 -3 -4 -3 -2 -3 -1 0 1 -0 -3 -2 -2 -2 1 1 1 1 1 1 -2 -3 -2 1 -1 -2
-8 -8 -9 -9 -11 -11 -9 -8 -7 -9 -10 -8 -5 -4 -2 -1 -0 -1 -3 -4 -4 -4 -3 -4 -2 -2 -3 -2 -0 -0 -0 -1 -2 -4 -2 0 1 2 2 3 2 -1 -1 1 -2 -1 -1
-9 -8 -7 -8 -9 -11 -11 -11 -11 -9 -10 -9 -5 -4 -1 -1 -0 -1 -3 -4 -4 -5 -5 -1 -3 -1 -3 -2 -1 -1 1 1 1 1 -0 2 2 4 3 3 0 -1 1 1 1 1 -1

GFSGBSN_850_dewp_168.txt.gz
Dewpoint
10 9 9 8 8 8 9 9 9 9 9 9 9 9 9 8 8 8 6 5 4 2 1 -5 -8 -15 -11 -12 -12 -15 -13 -8 -7 -9 -6 -5 -6 -8 -8 -9 -9 -9 -9 -10 -10 -12 -11
9 9 9 9 9 10 10 10 10 9 10 10 9 10 10 9 8 7 4 3 -1 -3 -4 -10 -11 -16 -16 -11 -11 -14 -16 -15 -11 -7 -8 -6 -6 -7 -8 -8 -9 -9 -9 -9 -11 -12 -12
7 8 8 9 9 9 9 9 9 9 10 9 9 9 8 8 9 6 4 1 -2 -6 -11 -15 -16 -17 -14 -12 -12 -13 -7 -10 -7 -5 -4 -6 -6 -7 -8 -8 -9 -8 -8 -10 -12 -12 -12
6 6 6 7 7 8 9 9 9 10 10 9 9 9 9 9 7 4 3 1 -1 -1 -2 -8 -15 -12 -9 -7 -9 -5 -3 -5 -6 -4 -4 -6 -6 -6 -7 -7 -7 -7 -9 -8 -13 -11 -13
3 4 4 6 7 7 8 8 9 9 9 9 9 8 9 7 6 5 4 3 4 2 1 -4 -6 -3 -5 -6 -5 -5 -4 -4 -5 -5 -4 -5 -5 -6 -7 -6 -10 -9 -10 -8 -7 -10 -11
2 2 3 5 6 6 7 8 8 8 9 9 9 8 7 4 5 4 4 4 4 0 -3 -3 -1 -1 -5 -3 -4 -4 -6 -6 -7 -7 -7 -4 -5 -5 -6 -7 -10 -10 -6 -6 -6 -8 -8
2 2 2 2 4 7 8 8 8 8 8 7 5 5 5 5 5 3 -1 2 -1 -2 -1 -2 -2 -2 -3 -3 -5 -7 -7 -5 -7 -6 -6 -5 -3 -2 -4 -6 -6 -6 -5 -4 -6 -8 -7
4 4 4 3 2 2 3 6 7 7 7 7 6 6 5 4 -1 -4 -7 -6 -0 1 2 -6 -7 -5 -7 -7 -3 -5 -6 -5 -8 -6 -7 -6 -3 -4 -5 -5 -5 -4 -4 -4 -6 -8 -7
2 3 4 4 3 3 2 2 2 2 1 0 0 -0 -1 -2 -4 -7 -5 -1 2 2 2 -2 -5 -6 -9 -8 -3 -7 -8 -8 -8 -7 -6 -5 -6 -6 -5 -5 -5 -5 -4 -5 -5 -7 -8
4 5 5 4 4 4 4 3 3 2 1 1 0 -0 -1 -3 -5 -6 -2 2 2 1 -5 -9 -10 -7 -8 -9 -7 -6 -8 -10 -7 -7 -6 -4 -5 -5 -5 -5 -6 -5 -7 -7 -6 -5 -4
3 2 2 3 4 5 3 3 3 2 2 1 1 0 -1 -3 -6 -2 -0 1 2 -3 -2 -10 -6 -5 -6 -7 -6 -5 -5 -8 -8 -6 -5 -5 -6 -6 -5 -6 -7 -6 -7 -6 -6 -5 -5
1 2 2 3 4 4 5 4 4 3 3 2 2 1 -1 -2 -5 -5 1 2 -3 -5 -6 -12 -4 -4 -3 -2 -4 -4 -4 -5 -4 -6 -5 -6 -7 -7 -6 -7 -8 -8 -7 -5 -3 -4 -2
-3 -2 0 1 1 2 3 2 4 3 3 3 2 2 1 -2 -4 -3 0 -0 -4 -5 -11 -9 -4 -4 -2 -3 -3 -4 -4 -4 -5 -4 -7 -7 -7 -7 -7 -6 -7 -7 -5 -1 -1 1 -1
-3 -4 -2 -1 -1 0 0 2 3 4 3 4 3 2 1 -1 -4 -0 0 -3 -5 -9 -10 -11 -12 -4 -3 -2 -3 -3 -3 -2 -4 -7 -6 -4 -4 -9 -8 -7 -7 -6 -4 -0 0 3 0
-3 -3 -3 -3 -3 -1 -1 0 0 2 4 3 3 3 2 1 -3 0 1 -1 -5 -9 -8 -7 -9 -6 -3 -2 -3 -2 -2 -3 -4 -5 -4 -3 -4 -9 -12 -12 -8 -5 -3 -5 -1 -2 -0
-5 -4 -4 -4 -4 -4 -2 -1 -0 0 3 3 3 3 2 1 -3 1 1 -1 -6 -5 -7 -7 -7 -7 -4 -3 -1 -2 -2 -5 -5 -6 -6 -5 -4 -9 -9 -12 -10 -9 -8 -3 1 4 2
-5 -5 -5 -5 -4 -4 -2 -1 -1 -1 1 3 3 2 1 1 -2 1 1 -0 -2 -6 -6 -6 -7 -6 -6 -5 -4 -5 -5 -8 -9 -10 -9 -9 -7 -8 -8 -10 -9 -6 -6 -4 -3 1 0
-9 -10 -9 -7 -6 -8 -6 -2 -0 0 0 2 2 1 1 -1 1 0 0 -1 -2 -2 -6 -5 -5 -5 -7 -8 -9 -8 -5 -7 -8 -9 -9 -5 -4 -3 -7 -7 -5 -6 -5 -4 1 -2 1
-6 -6 -7 -8 -8 -5 -5 -8 -3 -0 1 1 1 0 1 -1 -0 -1 -2 -1 -2 -3 -3 -3 -5 -6 -7 -7 -7 -7 -7 -7 -6 -8 -6 -6 -3 -4 -6 -7 -8 -4 -4 -3 -2 -0 0
-6 -7 -8 -6 -7 -8 -6 -6 -7 -2 -0 1 0 0 0 1 -1 -3 -1 -1 -2 -3 -4 -5 -4 -5 -5 -8 -8 -7 -8 -9 -7 -7 -5 -7 -5 -5 -3 -5 -5 -4 -3 -4 -3 -1 -2
-6 -6 -5 -5 -7 -8 -8 -6 -6 -7 -2 -0 -0 -0 -0 1 1 -0 -2 -2 -1 -1 -2 -3 -2 -4 -5 -4 -7 -5 -6 -6 -7 -7 -5 -5 -3 -4 -4 -5 -3 -3 -3 -3 -2 -3 -1
-6 -6 -7 -8 -5 -5 -8 -7 -7 -7 -4 -1 -0 -1 -1 -0 1 1 -1 -1 -1 -1 -2 -1 -3 -4 -3 -3 -5 -5 -4 -5 -7 -4 -4 -4 -3 -2 -5 -3 -3 -2 -2 -2 -2 -2 -2
-6 -6 -6 -8 -7 -6 -5 -5 -7 -7 -6 -1 -1 -1 -0 0 0 2 2 -0 -1 -1 -2 -2 -2 -1 -1 -3 -5 -7 -9 -8 -8 -4 -2 -1 -1 0 -0 -2 -1 -0 -2 -1 -2 -1 -2
-6 -6 -5 -6 -6 -5 -6 -7 -6 -7 -7 -3 -2 -1 -1 0 0 0 1 1 0 -1 0 -2 -2 -1 -2 -3 -4 -4 -4 -3 -2 -2 -3 -0 -0 0 1 -0 1 -4 -5 -4 -3 -3 -2
-6 -6 -6 -6 -6 -7 -6 -7 -8 -7 -8 -5 -2 -2 -1 -1 0 -0 -0 -1 0 -0 1 -0 -1 -2 -2 -1 -0 -1 -1 -3 -3 -2 -2 -1 -0 1 1 0 -2 -4 -6 -5 -4 -3 -5
-6 -6 -6 -6 -7 -7 -7 -8 -6 -6 -6 -6 -5 -3 -2 -2 -1 -0 0 0 1 1 -0 -2 -3 -3 -2 1 2 2 1 -2 -3 -4 -2 -2 -1 1 1 2 0 -3 -4 -2 -1 0 -4
-8 -9 -9 -8 -9 -9 -8 -10 -10 -8 -8 -5 -5 -5 -2 -2 -2 -1 1 0 -0 -0 -1 -4 -2 -0 -0 -0 1 2 1 -4 -2 -3 -4 1 0 1 1 2 1 -4 -1 -2 0 -1 -3
-8 -8 -8 -8 -9 -10 -9 -10 -11 -11 -10 -8 -5 -6 -4 -2 -2 -1 -1 0 0 0 -2 -3 -2 -2 -1 1 1 1 0 -1 -2 -4 -2 -1 1 1 1 2 2 -1 -1 0 -1 1 1
-8 -8 -9 -9 -7 -8 -9 -10 -11 -10 -8 -8 -5 -8 -6 -2 -2 -1 -0 -1 0 -0 -4 -3 -4 -3 -3 -2 -2 -2 -0 -1 -1 0 -3 -2 -1 1 0 2 -1 -2 -2 -3 -1 1 1

GFSGBSN_850_dewp_171.txt.gz
Dewpoint
9 8 8 8 8 9 8 9 9 9 10 9 8 9 8 9 9 7 8 6 4 3 0 -3 -5 -8 -10 -13 -10 -11 -13 -13 -10 -11 -8 -8 -6 -8 -7 -8 -9 -9 -9 -9 -10 -11 -12
10 10 9 9 9 9 10 10 10 10 10 10 9 9 9 9 9 8 8 6 4 4 1 -2 -1 -2 -10 -11 -9 -14 -14 -11 -11 -9 -8 -8 -6 -6 -8 -8 -9 -9 -9 -9 -10 -11 -12
8 8 8 7 8 8 8 8 9 10 10 9 9 9 9 9 8 8 7 7 6 4 3 3 2 -0 -6 -8 -8 -9 -5 -6 -5 -5 -4 -4 -6 -6 -7 -7 -9 -7 -7 -9 -12 -11 -12
6 6 6 6 6 6 6 7 8 9 9 9 9 9 8 8 7 7 7 6 5 5 4 4 2 -2 -3 -5 -8 -4 -4 -5 -5 -7 -5 -5 -6 -6 -6 -7 -8 -7 -8 -9 -12 -10 -13
6 5 4 3 3 5 6 7 7 8 8 8 8 8 8 8 8 7 6 6 5 3 4 2 -1 -1 -3 -5 -5 -5 -5 -6 -6 -6 -6 -5 -5 -6 -7 -7 -10 -9 -12 -8 -7 -10 -9
4 2 2 2 3 5 5 6 7 8 8 8 8 8 7 7 6 6 5 5 3 -0 0 -1 -1 -1 -4 -4 -4 -3 -4 -7 -8 -7 -7 -4 -5 -4 -5 -7 -12 -11 -6 -6 -5 -7 -8
2 2 2 2 2 3 5 7 7 7 7 7 6 6 6 6 5 3 2 1 -4 -3 -1 -2 -4 -3 -6 -5 -5 -5 -7 -7 -6 -7 -5 -5 -3 -4 -5 -5 -7 -6 -4 -4 -5 -7 -7
3 3 3 2 2 2 2 1 2 3 5 5 4 2 0 -1 -2 -4 -6 -6 -1 0 2 -6 -7 -4 -6 -6 -4 -7 -9 -5 -7 -5 -6 -6 -3 -5 -5 -5 -5 -4 -3 -4 -5 -7 -7
1 0 0 1 4 4 3 3 2 2 2 1 1 0 -1 -2 -3 -6 -6 -1 2 3 2 -3 -4 -6 -9 -8 -5 -8 -8 -7 -7 -6 -5 -5 -7 -6 -5 -5 -5 -5 -4 -4 -5 -7 -7
0 4 4 5 4 4 4 4 3 3 2 1 1 0 -0 -2 -4 -6 -2 2 3 2 -2 -6 -12 -8 -7 -8 -7 -5 -8 -9 -7 -8 -7 -6 -6 -5 -5 -4 -5 -3 -6 -6 -6 -5 -4
2 3 3 3 3 3 4 4 3 3 3 2 2 1 0 -1 -3 -6 -3 1 2 -2 0 -9 -7 -5 -5 -7 -7 -5 -4 -9 -8 -5 -5 -7 -6 -5 -5 -5 -6 -5 -6 -6 -6 -5 -4
-2 -0 2 2 2 4 3 4 4 4 3 3 2 1 1 0 -2 -4 -6 1 -0 -3 -2 -9 -5 -3 -3 -3 -4 -4 -4 -4 -5 -7 -5 -6 -7 -6 -6 -7 -6 -6 -6 -4 -3 -4 -2
-5 -4 -2 -0 1 1 2 3 3 3 3 3 3 2 1 1 -1 -4 -5 -0 -2 -2 -11 -10 -5 -4 -2 -4 -3 -4 -3 -3 -5 -5 -7 -7 -6 -6 -7 -6 -7 -6 -5 -2 -2 -1 -5
-4 -4 -4 -3 -2 -1 -0 0 1 3 4 4 3 3 2 2 1 -3 -2 -2 -2 -8 -9 -11 -12 -7 -3 -3 -3 -3 -3 -2 -4 -6 -6 -5 -6 -8 -7 -6 -7 -5 -5 -3 -2 -3 -4
-4 -4 -3 -3 -3 -3 -2 -1 -1 0 1 3 4 3 3 1 1 -3 -0 1 -3 -8 -8 -7 -8 -7 -6 -3 -2 -1 -2 -2 -4 -5 -4 -3 -4 -8 -11 -10 -8 -4 -3 -5 -3 -2 -1
-6 -6 -5 -4 -4 -4 -4 -3 -2 -1 -0 1 3 3 2 1 1 -2 1 -0 -3 -7 -6 -7 -6 -8 -5 -4 -1 -1 -1 -3 -3 -4 -6 -4 -2 -7 -9 -11 -8 -6 -6 -2 -0 -1 0
-7 -6 -6 -6 -6 -6 -5 -4 -3 -1 -1 0 2 2 1 1 1 1 1 -0 -2 -5 -5 -6 -6 -5 -5 -5 -4 -3 -4 -6 -9 -9 -6 -5 -3 -5 -7 -9 -9 -7 -6 -3 -3 1 -2
-11 -10 -10 -10 -10 -8 -7 -8 -4 -2 -0 -0 2 1 1 1 1 1 1 -1 -3 -3 -5 -5 -4 -4 -5 -5 -6 -7 -4 -5 -7 -9 -7 -6 -4 -4 -8 -7 -6 -6 -6 -6 -4 -7 -0
-5 -5 -6 -7 -8 -10 -8 -5 -8 -4 -1 0 1 0 1 1 1 1 -2 -2 -2 -3 -3 -4 -3 -4 -5 -4 -4 -5 -6 -8 -7 -7 -5 -4 -3 -6 -6 -6 -7 -4 -4 -3 -1 -1 -4
-5 -5 -6 -7 -7 -6 -7 -7 -5 -7 -2 -0 0 0 0 1 0 -1 -1 -1 -1 -3 -4 -5 -5 -5 -4 -4 -5 -4 -7 -8 -7 -7 -6 -7 -5 -5 -2 -6 -6 -7 -4 -3 -3 0 -3
-10 -10 -9 -6 -5 -5 -7 -8 -6 -6 -6 -1 -1 -0 0 1 0 -0 -2 -2 -2 -2 -2 -3 -3 -4 -5 -3 -6 -5 -6 -6 -6 -7 -5 -4 -6 -4 -6 -6 -6 -6 -7 -5 -4 -4 -3
-6 -5 -6 -7 -8 -9 -5 -5 -8 -6 -7 -2 -1 -1 -1 -1 0 1 0 -0 -1 -2 -2 -2 -2 -4 -3 -2 -4 -5 -5 -4 -5 -5 -4 -3 -5 -2 -2 -4 -4 -1 -1 -1 -3 -3 -3
-11 -11 -10 -9 -7 -6 -7 -5 -5 -6 -7 -5 -2 -1 -1 -0 0 1 1 -0 -1 -2 -1 -2 -3 -2 -1 -1 -2 -3 -4 -5 -6 -5 -2 -1 -2 -0 -3 -3 -2 -1 -0 -2 -4 -5 -4
-7 -7 -8 -7 -7 -6 -5 -6 -7 -6 -6 -6 -5 -2 -2 -0 1 -0 -1 -0 1 0 1 -1 -0 1 -1 -2 -3 -3 -4 -6 -6 -5 -3 -0 -0 -0 -0 -1 1 -3 -6 -4 -3 -3 -4
-6 -6 -6 -6 -7 -6 -6 -6 -7 -7 -7 -6 -6 -3 -2 -1 -2 -2 -1 -1 -1 -0 1 1 1 0 0 -0 -0 1 -0 -2 -2 -2 -2 -1 0 2 0 -2 -4 -4 -6 -5 -4 -3 -5
-6 -6 -6 -6 -7 -8 -8 -7 -7 -8 -7 -5 -5 -5 -2 -2 -3 -3 -3 0 1 1 1 1 0 -0 0 0 1 0 0 -1 -2 -2 -2 -1 0 2 1 1 -1 -5 -4 -2 -2 -2 -0
-7 -8 -6 -8 -8 -8 -8 -8 -8 -8 -9 -6 -5 -5 -3 -2 -4 -4 -3 -2 0 1 0 -1 -1 0 -0 0 1 -0 1 1 2 -3 -1 0 1 2 0 -1 -2 -3 -4 -1 -1 -3 0
-7 -8 -12 -7 -8 -9 -8 -9 -9 -9 -9 -6 -5 -6 -3 -4 -4 -5 -4 -1 -0 -0 1 -0 0 0 0 1 1 0 1 1 0 -3 -4 -3 1 0 0 1 -1 -3 -1 0 -1 0 -0
-7 -9 -9 -11 -8 -9 -8 -8 -10 -9 -10 -9 -5 -7 -7 -3 -4 -3 -2 -3 -4 -3 -1 -0 -0 -2 -1 -0 -0 -0 1 -1 -2 -1 -4 -2 -1 0 1 -1 -2 -2 -2 -3 -2 -1 1